Weather in Volnoe

Ukraine / Kherson District     46°50′24″N   34°36′43″E
temp.,
°C
wind,
m/s
gust,
m/s
humid.,
%
clouds,
%
prec.,
mm/h
press.,
hPa
HPBL,
m
16 may, sun
sun1600:00+15wsw1174100 0.0 101211
03:00+14nne237295 0.0 101218
06:00+14ne3568100 0.0 101279
09:00+21ne4654100 0.0 1011456
12:00+26ne44375 0.0 10101475
15:00+27ne5633100 0.0 10071943
18:00+23n4757100 0.3 1006145
21:00+18n498331 2.3 1004151
17 may, mon
mon1700:00+17n699180 2.9 1001179
03:00+17nne71294100 8.6 1000299
06:00+16sw23967 0.2 100282
09:00+18ssw3489100 0.9 1002423
12:00+20ssw7877100 0.2 1004968
15:00+18sw91275100 0.2 10051050
18:00+17ssw8118097 0.1 1006973
21:00+15s6108639 0.1 1007537
18 may, tue
tue1800:00+15ssw51183100 0.1 1008503
03:00+15s5128287 0.3 1007422
06:00+14sse410895 0.0 1007282
09:00+19s796682 0.0 1008746
12:00+16ssw71186100 0.3 1008620
15:00+18s71179100 1.8 1007858
18:00+18sw71178100 1.4 1007938
21:00+15sw61284100 2.0 1008543
19 may, wed
wed1900:00+13wsw5118875 0.0 1008381
03:00+11wsw61192100 0.1 1010427
06:00+12wsw5118430 0.0 1011592
09:00+16wsw812640 0.0 10121299
12:00+20wsw10124744 0.0 10132213
15:00+21wsw810415 0.0 10132369
18:00+20wsw68490 0.0 10131718
21:00+14sw48725 0.0 1014128
20 may, thu
thu2000:00+12w227070 0.0 101519
03:00+11ese1170100 0.0 101410
06:00+12ene3369100 0.0 101465
09:00+16e5864100 0.0 1013486
12:00+21ese7943100 0.0 10111392
15:00+22ese9104697 0.0 10091368
18:00+21e7116656 0.0 10081011
21:00+18e6157967 0.1 1006517